AUA96Y LOWW-ESSA

Flight info

Callsign AUA96Y
Flight time N/A
Altitude 36000
Route LEDVA DCT KATQA DCT UPLAV DCT DESEN DCT VAGSA DCT BEZMI DCT PENOR DCT TESPO DCT ARMOD/N0454F370 Z228 NILUG
Aircraft A320/M-SDE3FGHIRWY/LB1

Departure

Time 2026-04-24 15:11
Airport Vienna International Airport (LOWW)

Arrival

Time N/A
Airport Stockholm-Arlanda Airport (ESSA)
Time Latitude Longitude Altitude Speed Heading
2026-04-24 14:54 48.11630 16.57040 610 ft 0 kts 27°
2026-04-24 15:04 48.11635 16.57043 620 ft 3 kts 27°
2026-04-24 15:04 48.11657 16.57060 610 ft 3 kts 27°
2026-04-24 15:04 48.11678 16.57078 616 ft 4 kts 32°
2026-04-24 15:05 48.11683 16.57128 610 ft 7 kts 108°
2026-04-24 15:05 48.11659 16.57206 622 ft 8 kts 116°
2026-04-24 15:05 48.11636 16.57277 615 ft 7 kts 115°
2026-04-24 15:05 48.11617 16.57334 613 ft 6 kts 115°
2026-04-24 15:06 48.11592 16.57410 615 ft 10 kts 121°
2026-04-24 15:06 48.11524 16.57463 615 ft 12 kts 173°
2026-04-24 15:06 48.11449 16.57430 624 ft 11 kts 206°
2026-04-24 15:06 48.11374 16.57376 621 ft 13 kts 205°
2026-04-24 15:07 48.11281 16.57309 620 ft 16 kts 206°
2026-04-24 15:07 48.11203 16.57296 614 ft 11 kts 136°
2026-04-24 15:07 48.11173 16.57387 613 ft 10 kts 116°
2026-04-24 15:07 48.11134 16.57505 621 ft 15 kts 116°
2026-04-24 15:08 48.11089 16.57633 616 ft 12 kts 132°
2026-04-24 15:08 48.11024 16.57634 621 ft 7 kts 206°
2026-04-24 15:08 48.10992 16.57610 610 ft 4 kts 206°
2026-04-24 15:08 48.10969 16.57593 615 ft 5 kts 206°
2026-04-24 15:09 48.10926 16.57556 613 ft 8 kts 222°
2026-04-24 15:09 48.10929 16.57487 615 ft 5 kts 296°
2026-04-24 15:09 48.10929 16.57486 614 ft 0 kts 296°
2026-04-24 15:10 48.10930 16.57485 614 ft 1 kts 296°
2026-04-24 15:10 48.10986 16.57313 615 ft 50 kts 295°
2026-04-24 15:10 48.11243 16.56524 622 ft 115 kts 296°
2026-04-24 15:10 48.11669 16.55222 636 ft 159 kts 295°
2026-04-24 15:11 48.12150 16.53727 1282 ft 158 kts 289°
2026-04-24 15:11 48.12100 16.52159 2001 ft 160 kts 246°
2026-04-24 15:11 48.11326 16.50855 2434 ft 180 kts 217°
2026-04-24 15:11 48.10192 16.49863 2850 ft 196 kts 217°
2026-04-24 15:12 48.09009 16.48685 3279 ft 212 kts 219°
2026-04-24 15:12 48.07087 16.45367 4358 ft 222 kts 251°
2026-04-24 15:12 48.06452 16.43175 4858 ft 239 kts 250°
2026-04-24 15:13 48.05760 16.40823 5379 ft 256 kts 250°
2026-04-24 15:13 48.05024 16.38339 6091 ft 264 kts 251°
2026-04-24 15:13 48.04619 16.35702 6913 ft 260 kts 273°
2026-04-24 15:13 48.04958 16.33077 7671 ft 258 kts 294°
2026-04-24 15:14 48.05660 16.30571 8384 ft 264 kts 295°
2026-04-24 15:14 48.06374 16.28038 9160 ft 267 kts 295°
2026-04-24 15:14 48.07089 16.25495 9944 ft 269 kts 295°
2026-04-24 15:14 48.07825 16.22869 10485 ft 281 kts 295°
2026-04-24 15:15 48.08600 16.20091 10851 ft 298 kts 295°
2026-04-24 15:15 48.09419 16.17143 11188 ft 315 kts 295°
2026-04-24 15:15 48.10280 16.14042 11503 ft 331 kts 295°
2026-04-24 15:15 48.11442 16.11011 11874 ft 341 kts 312°
2026-04-24 15:16 48.13265 16.08747 12466 ft 343 kts 332°
2026-04-24 15:16 48.15528 16.07612 13091 ft 348 kts 353°
2026-04-24 15:16 48.17952 16.07844 13732 ft 355 kts 14°
2026-04-24 15:16 48.20181 16.09486 14284 ft 364 kts 35°
2026-04-24 15:17 48.22127 16.11958 14822 ft 369 kts 38°
2026-04-24 15:17 48.24077 16.14506 15375 ft 373 kts 38°
2026-04-24 15:17 48.26039 16.17083 15940 ft 376 kts 38°
2026-04-24 15:17 48.28017 16.19683 16498 ft 379 kts 39°
2026-04-24 15:18 48.30013 16.22302 17069 ft 383 kts 38°
2026-04-24 15:18 48.32002 16.24907 17628 ft 386 kts 39°
2026-04-24 15:18 48.34063 16.27600 18189 ft 389 kts 38°
2026-04-24 15:18 48.36088 16.30243 18665 ft 392 kts 39°
2026-04-24 15:19 48.38158 16.32952 19151 ft 396 kts 38°
2026-04-24 15:19 48.40244 16.35684 19624 ft 399 kts 39°
2026-04-24 15:19 48.42345 16.38442 20091 ft 402 kts 39°
2026-04-24 15:19 48.44461 16.41224 20547 ft 405 kts 39°
2026-04-24 15:20 48.46588 16.44029 20991 ft 408 kts 39°
2026-04-24 15:20 48.48731 16.46857 21433 ft 411 kts 39°
2026-04-24 15:20 48.50892 16.49709 21861 ft 414 kts 39°
2026-04-24 15:20 48.53061 16.52572 22282 ft 416 kts 39°
2026-04-24 15:21 48.55248 16.55462 22691 ft 419 kts 38°
2026-04-24 15:21 48.57449 16.58375 23094 ft 422 kts 39°
2026-04-24 15:21 48.59657 16.61303 23496 ft 424 kts 39°
2026-04-24 15:21 48.61880 16.64253 23828 ft 426 kts 38°
2026-04-24 15:22 48.64088 16.67182 24161 ft 428 kts 38°
2026-04-24 15:22 48.66325 16.70157 24505 ft 429 kts 39°
2026-04-24 15:22 48.68564 16.73144 24844 ft 430 kts 39°
2026-04-24 15:23 48.73062 16.79168 25502 ft 432 kts 39°
2026-04-24 15:23 48.77395 16.85548 26132 ft 436 kts 43°
2026-04-24 15:23 48.79494 16.88869 26442 ft 437 kts 43°
2026-04-24 15:24 48.85813 16.98945 27303 ft 441 kts 43°
2026-04-24 15:25 48.89373 17.04502 27761 ft 442 kts 42°
2026-04-24 15:25 48.94431 17.12341 28345 ft 445 kts 42°
2026-04-24 15:26 49.00947 17.22472 29045 ft 446 kts 39°
2026-04-24 15:27 49.08527 17.30338 29942 ft 437 kts 28°
2026-04-24 15:27 49.16259 17.37622 30739 ft 434 kts 28°
2026-04-24 15:28 49.26433 17.47264 31770 ft 429 kts 28°
2026-04-24 15:29 49.31677 17.51392 32299 ft 420 kts 15°
2026-04-24 15:30 49.40216 17.52738 33033 ft 411 kts 358°
2026-04-24 15:31 49.51600 17.52612 34024 ft 407 kts 358°
2026-04-24 15:32 49.62867 17.52482 34832 ft 403 kts 358°
2026-04-24 15:33 49.74062 17.52341 35525 ft 401 kts 358°
2026-04-24 15:33 49.82419 17.52238 35980 ft 400 kts 357°
2026-04-24 15:34 49.87999 17.52171 36029 ft 402 kts 357°
2026-04-24 15:35 50.01980 17.52003 36034 ft 402 kts 357°
2026-04-24 15:36 50.07534 17.51932 36033 ft 402 kts 357°
2026-04-24 15:36 50.15928 17.51833 36042 ft 402 kts 357°
2026-04-24 15:37 50.21520 17.51760 36048 ft 402 kts 356°
2026-04-24 15:37 50.27117 17.51693 36045 ft 402 kts 356°
2026-04-24 15:38 50.32706 17.51463 36041 ft 402 kts 355°
2026-04-24 15:38 50.38290 17.51075 36044 ft 402 kts 354°
2026-04-24 15:39 50.43876 17.50692 36048 ft 402 kts 355°
2026-04-24 15:39 50.49456 17.50355 36048 ft 402 kts 355°
2026-04-24 15:40 50.55040 17.50030 36052 ft 402 kts 355°
2026-04-24 15:40 50.60625 17.49704 36054 ft 402 kts 354°
2026-04-24 15:41 50.66211 17.49374 36058 ft 402 kts 354°
2026-04-24 15:41 50.71796 17.49053 36060 ft 402 kts 354°
2026-04-24 15:42 50.77379 17.48719 36057 ft 401 kts 354°
2026-04-24 15:42 50.82964 17.48384 36060 ft 401 kts 354°
2026-04-24 15:43 50.88547 17.48051 36060 ft 401 kts 354°
2026-04-24 15:43 50.94147 17.47710 36061 ft 401 kts 354°
2026-04-24 15:44 50.99697 17.47364 36061 ft 401 kts 354°
2026-04-24 15:44 51.05307 17.47025 36060 ft 401 kts 354°
2026-04-24 15:45 51.10877 17.46692 36062 ft 401 kts 354°
2026-04-24 15:45 51.16471 17.46352 36064 ft 401 kts 354°
2026-04-24 15:46 51.22020 17.46021 36066 ft 401 kts 354°
2026-04-24 15:46 51.27607 17.45685 36064 ft 401 kts 354°
2026-04-24 15:47 51.33171 17.45343 36064 ft 401 kts 353°
2026-04-24 15:47 51.38750 17.44993 36061 ft 401 kts 353°
2026-04-24 15:48 51.44333 17.44650 36061 ft 401 kts 353°
2026-04-24 15:48 51.48980 17.44366 36058 ft 401 kts 353°
2026-04-24 15:49 51.55498 17.43964 36056 ft 401 kts 353°
2026-04-24 15:49 51.61063 17.43622 36057 ft 401 kts 353°
2026-04-24 15:50 51.65699 17.43335 36056 ft 401 kts 353°
2026-04-24 15:50 51.71277 17.42987 36054 ft 401 kts 353°
2026-04-24 15:51 51.76848 17.42635 36050 ft 402 kts 353°
2026-04-24 15:51 51.82429 17.42289 36052 ft 402 kts 353°
2026-04-24 15:52 51.88002 17.41936 36048 ft 402 kts 353°
2026-04-24 15:52 51.93623 17.41584 36046 ft 402 kts 353°
2026-04-24 15:53 51.99187 17.41243 36046 ft 402 kts 353°
2026-04-24 15:53 52.04774 17.40899 36037 ft 401 kts 353°
2026-04-24 15:54 52.10354 17.40534 36040 ft 401 kts 353°
2026-04-24 15:54 52.15928 17.40163 36042 ft 401 kts 353°
2026-04-24 15:55 52.21499 17.39809 36031 ft 401 kts 353°
2026-04-24 15:55 52.27075 17.39463 36030 ft 401 kts 353°
2026-04-24 15:56 52.32657 17.39111 36024 ft 401 kts 353°
2026-04-24 15:56 52.38231 17.38759 36024 ft 401 kts 352°
2026-04-24 15:57 52.43806 17.38401 36024 ft 401 kts 352°
2026-04-24 15:57 52.49382 17.38035 36018 ft 401 kts 352°
2026-04-24 15:58 52.54956 17.37661 36013 ft 401 kts 352°
2026-04-24 15:58 52.60526 17.37298 36011 ft 401 kts 352°
2026-04-24 15:59 52.66094 17.36945 36009 ft 401 kts 352°
2026-04-24 15:59 52.71673 17.36589 36008 ft 401 kts 352°
2026-04-24 16:00 52.77245 17.36223 36005 ft 401 kts 352°
2026-04-24 16:00 52.82824 17.35856 36000 ft 401 kts 352°
2026-04-24 16:01 52.88397 17.35499 35987 ft 401 kts 352°
2026-04-24 16:01 52.93966 17.35131 35987 ft 401 kts 352°
2026-04-24 16:02 52.99539 17.34759 35986 ft 401 kts 352°
2026-04-24 16:02 53.05119 17.34385 35982 ft 401 kts 352°
2026-04-24 16:03 53.10694 17.34015 35978 ft 401 kts 352°
2026-04-24 16:03 53.16272 17.33654 35979 ft 402 kts 352°
2026-04-24 16:04 53.21817 17.33288 35986 ft 401 kts 352°
2026-04-24 16:04 53.27411 17.32913 35985 ft 401 kts 352°
2026-04-24 16:05 53.35775 17.32345 35982 ft 402 kts 352°
2026-04-24 16:06 53.44169 17.31785 35989 ft 402 kts 353°
2026-04-24 16:07 53.52528 17.31212 35990 ft 402 kts 353°
2026-04-24 16:07 53.60895 17.30639 35993 ft 402 kts 353°
2026-04-24 16:08 53.69308 17.30071 35990 ft 402 kts 353°
2026-04-24 16:09 53.77709 17.29501 35982 ft 403 kts 353°
2026-04-24 16:09 53.83284 17.29113 35979 ft 403 kts 353°
2026-04-24 16:11 53.97305 17.28152 35978 ft 403 kts 353°
2026-04-24 16:11 54.02911 17.27753 35989 ft 404 kts 353°
2026-04-24 16:12 54.11304 17.27169 35992 ft 404 kts 353°
2026-04-24 16:13 54.19746 17.26587 35992 ft 404 kts 353°
2026-04-24 16:14 54.30992 17.25802 35990 ft 404 kts 353°
2026-04-24 16:14 54.39406 17.25220 35993 ft 404 kts 353°
2026-04-24 16:15 54.47795 17.24618 35997 ft 404 kts 353°